AirNav   Air Wisconsin Up To $57,000 Bonus
 
 1014 users online  

53T Cannon Field Airport
Somerset, Texas, USA

GOING TO SOMERSET?


FAA INFORMATION EFFECTIVE 31 DECEMBER 2020

Location

FAA Identifier: 53T
Lat/Long: 29-12-57.8640N 098-32-58.0630W
29-12.964400N 098-32.967717W
29.2160733,-98.5494619
(estimated)
Elevation: 610 ft. / 186 m (estimated)
Variation: 07E (1985)
From city: 6 miles E of SOMERSET, TX
Time zone: UTC -6 (UTC -5 during Daylight Saving Time)
Zip code: 78264

Airport Operations

Airport use: Open to the public
Activation date: 09/1983
Control tower: no
ARTCC: HOUSTON CENTER
FSS: SAN ANGELO FLIGHT SERVICE STATION
NOTAMs facility: SJT (NOTAM-D service available)
Attendance: CONTINUOUS
FOR ARPT ATTENDANT CALL 210-842-0429.
Wind indicator: yes
Segmented circle: no

Airport Communications

CTAF/UNICOM: 123.0
WX ASOS at SSF (8 nm NE): PHONE 210-927-9391
WX AWOS-3 at PEZ (16 nm S): 118.575 (830-569-5749)
WX AWOS-3 at CVB (18 nm NW): 119.25 (830-931-0232)
WX ASOS at SAT (20 nm N): PHONE 210-805-5583

Nearby radio navigation aids

VOR radial/distance  VOR name  Freq  Var
SSFr236/(6.1)STINSON VOR108.4009E
RNDr212/22.8RANDOLPH VORTAC112.3005E
SATr182/26.1SAN ANTONIO VORTAC116.8008E

 
NDB name  Hdg/Dist  Freq  Var  ID
DEVINE070/20.935907EHHH .... .... ....
HONDO098/33.932908EHMA .... -- .-

Airport Services

Airframe service: NONE
Powerplant service: NONE

Runway Information

Runway 16/34

Dimensions: 2880 x 100 ft. / 878 x 30 m
ROLLING GRADIENT ENTIRE LEN OF RWY NOT VISIBLE FM ENDS.
Surface: turf, in good condition
Runway edge markings: RWY OUTLINED WITH ROUND WHITE CONCRETE MARKERS.
RUNWAY 16  RUNWAY 34
Traffic pattern: leftright
Displaced threshold: 200 ft.300 ft.
Markings: NSTD
Obstructions: 4 ft. fence, 105 ft. right of centerline
RWY 16 0:1 AT DSPLCD THR DUE TO 4 FT FENCE APPROX 105 FT R OF CNTRLN.
49 ft. tree, 100 ft. left of centerline
RWY 34 0:1 AT DSPLCD THR DUE TO +4 FT FENCE 51 FT R OF CNTRLN.

Airport Ownership and Management from official FAA records

Ownership: Privately-owned
Owner: ALAMO LIAISON GROUP
2352 S LOOP 1604 W
SAN ANTONIO, TX 78264-3719
Phone 210-624-2226
Manager: RICHARD ROBERTS
2352 S LOOP 1604 W
SAN ANTONIO, TX 78264-3719
Phone 210-624-2226

Airport Operational Statistics

Aircraft based on the field: 13
Single engine airplanes: 13
    
Aircraft operations: avg 21/week *
91% local general aviation
9% transient general aviation
* for 12-month period ending 01 February 2017

Additional Remarks

WILDLIFE ON & INVOF ARPT.
+30 FT MKD PWRLINE 500 FT N OF RWY 16 END.
RWYS 16 & 34 DSPLCD THRS MKD WITH WHITE PAINTED BARRELS.
RWY 16/34 SOUTH HALF ROUGH EDGES.
RWY 16 +4 FT FENCE 105 FT R PARALLEL TO RWY; +6-10 FT TREES IN FENCE ROW 105 FT R OF CNTRLN.
RWY 34 +4 FT FENCE 51 FT RIGHT PARALLEL TO RWY.
FOR CD CTC SAN ANTONIO APCH AT 210-805-5516.

Instrument Procedures

There are no published instrument procedures at 53T.

Some nearby airports with instrument procedures:

KSSF - Stinson Municipal Airport (8 nm NE)
KSKF - Kelly Field Airport (10 nm N)
KPEZ - Pleasanton Municipal Airport (16 nm S)
KCVB - Castroville Municipal Airport (18 nm NW)
KSAT - San Antonio International Airport (20 nm N)
 
Loc | Ops | Rwys | IFR | FBO | Links
Com | Nav | Svcs | Stats | Notes
Area around 53T (Cannon Field Airport)
 
Road maps at: MapQuest Bing Google
 
Aerial photo
WARNING: Photo may not be current or correct
Aerial photo of 53T (Cannon Field Airport)
Photo taken 11-Jun-2010

Do you have a better or more recent aerial photo of Cannon Field Airport that you would like to share? If so, please send us your photo.

 
Sectional chart

 
Airport distance calculator
Flying to Cannon Field Airport? Find the distance to fly.

From to 53T

Sunrise and sunset
Times for 18-Jan-2021
 Local
(UTC-6)
 Zulu
(UTC)
Morning civil twilight07:0413:04
Sunrise07:3013:30
Sunset18:0024:00
Evening civil twilight18:2500:25

Current date and time
Zulu (UTC)  19-Jan-2021 01:34:49
Local (UTC-6)  18-Jan-2021 19:34:49
 
METAR
KSSF 
8nm NE 
190053Z 14012KT 10SM FEW055 21/14 A2988 RMK AO2 SLP115 T02060144 $
KSKF 
9nm N 
190056Z AUTO 12008KT 10SM CLR 21/13 A2987 RMK AO2 SLP113 T02090126 $
KPEZ 
16nm S 
190115Z AUTO 14009KT 10SM CLR 22/17 A2990 RMK AO2 T02170165
KCVB 
17nm NW 
190115Z AUTO 00000KT 10SM CLR 18/12 A2991 RMK AO2 T01810124
KSAT 
20nm N 
190051Z 11004KT 10SM FEW150 17/11 A2990 RMK AO2 SLP114 T01720111
TAF
KSSF 
8nm NE 
181721Z 1818/1918 19008KT 3SM BR BKN006 FM181900 19009KT P6SM FEW150 FM190500 14006KT P6SM BKN015 FM191200 12005KT P6SM OVC010 PROB30 1912/1918 4SM -SHRA BR OVC004
KSKF 
9nm N 
182000Z 1820/1924 15009KT 9999 SCT035 QNH2992INS BECMG 1905/1906 VRB06KT 4800 BR OVC020 QNH2998INS BECMG 1909/1910 10006KT 8000 -SHRA OVC006 QNH3000INS BECMG 1914/1915 15010G15KT 9999 VCSH OVC013 510603 QNH3015INS BECMG 1920/1921 02012G18KT 9000 DZ BKN006 520132 QNH3023INS TX20/1821Z TN12/1906Z
KSAT 
20nm N 
182357Z 1900/2006 15010KT P6SM FEW035 FM190400 15009KT P6SM BKN012 FM190700 15008KT P6SM -SHRA OVC007 FM191100 12005KT 4SM -SHRA BR OVC005 FM191700 12008KT P6SM -SHRA OVC012 FM192200 02012KT 3SM SHRA BR OVC006
NOTAMs
Click for the latest NOTAMs
NOTAMs are issued by the DoD/FAA and will open in a separate window not controlled by AirNav.

 

 
 

Would you like to see your business listed on this page?

 If your business provides an interesting product or service to pilots, flight crews, aircraft, or users of the Cannon Field Airport, you should consider listing it here.  To start the listing process, click on the button below
 
Add a business
 

Other Pages about Cannon Field Airport

Update a link
 
Copyright © AirNav, LLC. All rights reserved. Privacy Policy  Contact